DW7787 Weather Reports


Display with metric or nautical units.
time (UTC)temp
F
wind
direction
speed
MPH
gust
MPH
rain 1hr
in
rain 24hr
in
rain mn
in
humidity
%
barometer
mb
20260904034444 81 132 0.0 1.0 0.00 0.00 0.00 78 1018.3
20260904034307 82 132 0.0 1.0 0.00 0.00 0.00 78 1018.3
20260904033440 82 132 0.0 0.0 0.00 0.00 0.00 79 1018.2
20260904032938 82 132 0.0 0.0 0.00 0.00 0.00 78 1018.4
20260904032635 82 132 0.0 0.0 0.00 0.00 0.00 77 1018.4
20260904032551 82 132 0.0 0.0 0.00 0.00 0.00 78 1018.4
20260904031436 82 132 0.0 0.0 0.00 0.00 0.00 78 1018.6
20260904030938 82 132 0.0 0.0 0.00 0.00 0.00 77 1018.4
20260904030432 82 132 0.0 0.0 0.00 0.00 0.00 76 1018.4
20260904025933 82 132 0.0 0.0 0.00 0.00 0.00 76 1018.4
20260904025429 83 132 0.0 0.0 0.00 0.00 0.00 75 1018.4
20260904024929 83 132 0.0 0.0 0.00 0.00 0.00 75 1018.6
20260904024430 83 132 0.0 0.0 0.00 0.00 0.00 75 1018.6
20260904023933 83 132 0.0 0.0 0.00 0.00 0.00 75 1018.6
20260904023428 83 132 0.0 0.0 0.00 0.00 0.00 75 1018.7
20260904022930 83 132 0.0 0.0 0.00 0.00 0.00 74 1018.8
20260904022430 84 132 0.0 0.0 0.00 0.00 0.00 74 1018.8
20260904021930 84 132 0.0 0.0 0.00 0.00 0.00 73 1018.8
20260904021429 84 132 0.0 0.0 0.00 0.00 0.00 73 1018.8
20260904020930 84 132 0.0 0.0 0.00 0.00 0.00 71 1018.8
20260904020428 84 132 0.0 0.0 0.00 0.00 0.00 71 1018.9
20260904020259 84 132 0.0 0.0 0.00 0.00 0.00 71 1018.8
20260904015429 85 132 0.0 0.0 0.00 0.00 0.00 71 1018.7
20260904014927 85 132 0.0 0.0 0.00 0.00 0.00 71 1018.6
20260904014425 85 132 0.0 0.0 0.00 0.00 0.00 71 1018.4
20260904013927 85 132 0.0 0.0 0.00 0.00 0.00 71 1018.2
20260904013426 85 132 0.0 0.0 0.00 0.00 0.00 69 1018.3
20260904012924 85 132 0.0 0.0 0.00 0.00 0.00 69 1018.3
20260904012424 86 132 0.0 0.0 0.00 0.00 0.00 68 1018.2
20260904011924 86 132 0.0 0.0 0.00 0.00 0.00 68 1018.2
20260904011830 87 132 0.0 0.0 0.00 0.00 0.00 68 1018.0
20260904011454 86 132 0.0 0.0 0.00 0.00 0.00 68 1017.9
20260904011441 86 132 0.0 0.0 0.00 0.00 0.00 68 1018.1
20260904005923 87 132 0.0 0.0 0.00 0.00 0.00 67 1017.9
20260904005426 87 132 0.0 0.0 0.00 0.00 0.00 67 1017.7
20260904004923 87 132 0.0 0.0 0.00 0.00 0.00 67 1017.6
20260904004423 87 132 0.0 0.0 0.00 0.00 0.00 66 1017.6
20260904003920 88 132 0.0 0.0 0.00 0.00 0.00 66 1017.6
20260904003420 88 132 0.0 0.0 0.00 0.00 0.00 65 1017.5
20260904002919 88 132 0.0 0.0 0.00 0.00 0.00 64 1017.4
20260904002421 88 132 0.0 0.0 0.00 0.00 0.00 65 1017.3
20260904002246 89 132 0.0 0.0 0.00 0.00 0.00 65 1017.3
20260904001419 89 132 0.0 0.0 0.00 0.00 0.00 64 1017.2
20260904000921 89 132 0.0 0.0 0.00 0.00 0.00 63 1017.1
20260904000425 89 132 0.0 0.0 0.00 0.00 0.00 63 1017.1
20260903235921 90 132 0.0 0.0 0.00 0.00 0.00 61 1017.0
20260903235423 90 132 0.0 0.0 0.00 0.00 0.00 60 1017.0
20260903234924 90 132 0.0 0.0 0.00 0.00 0.00 60 1016.9
20260903234419 91 132 0.0 0.0 0.00 0.00 0.00 59 1016.9
20260903233923 91 132 0.0 0.0 0.00 0.00 0.00 58 1016.9
20260903233423 91 132 0.0 0.0 0.00 0.00 0.00 58 1016.8
20260903233237 91 132 0.0 0.0 0.00 0.00 0.00 58 1016.8
20260903232421 91 132 0.0 0.0 0.00 0.00 0.00 57 1016.8
20260903232255 91 132 0.0 0.0 0.00 0.00 0.00 58 1016.7
20260903231618 92 132 0.0 2.0 0.00 0.00 0.00 57 1016.8
20260903231532 92 132 0.0 0.0 0.00 0.00 0.00 58 1016.8
20260903230414 92 132 1.0 2.0 0.00 0.00 0.00 57 1016.7
20260903230233 92 132 1.0 2.0 0.00 0.00 0.00 56 1016.7
20260903225414 92 132 1.0 2.0 0.00 0.00 0.00 55 1016.7
20260903224914 92 132 1.0 2.0 0.00 0.00 0.00 56 1016.8
20260903224413 92 132 1.0 2.0 0.00 0.00 0.00 54 1016.7
20260903223916 93 125 1.0 2.0 0.00 0.00 0.00 54 1016.7
20260903223411 93 133 1.0 2.0 0.00 0.00 0.00 52 1016.8
20260903222909 94 119 0.0 1.0 0.00 0.00 0.00 53 1016.8
20260903222409 94 119 1.0 2.0 0.00 0.00 0.00 52 1016.8
20260903222013 94 102 1.0 2.0 0.00 0.00 0.00 51 1016.8
20260903221940 94 119 1.0 2.0 0.00 0.00 0.00 51 1016.9
20260903220909 94 109 0.0 2.0 0.00 0.00 0.00 50 1016.8
20260903220415 95 74 0.0 1.0 0.00 0.00 0.00 53 1016.9
20260903215908 95 74 0.0 2.0 0.00 0.00 0.00 51 1016.9
20260903215722 95 74 0.0 2.0 0.00 0.00 0.00 51 1017.0
20260903214917 96 74 0.0 1.0 0.00 0.00 0.00 50 1017.0
20260903214740 96 74 0.0 2.0 0.00 0.00 0.00 49 1016.9
20260903213857 96 74 0.0 2.0 0.00 0.00 0.00 48 1017.0
20260903213357 97 182 0.0 1.0 0.00 0.00 0.00 49 1017.0
20260903212853 97 182 0.0 2.0 0.00 0.00 0.00 48 1017.0
20260903212336 97 171 0.0 2.0 0.00 0.00 0.00 46 1017.1
20260903211834 97 15 0.0 2.0 0.00 0.00 0.00 47 1017.1
20260903211333 97 142 1.0 2.0 0.00 0.00 0.00 47 1017.1
20260903211155 97 120 1.0 2.0 0.00 0.00 0.00 46 1017.0
20260903210708 96 133 1.0 3.0 0.00 0.00 0.00 49 1017.1
20260903205831 96 140 2.0 5.0 0.00 0.00 0.00 47 1017.1
20260903205329 97 122 2.0 5.0 0.00 0.00 0.00 46 1017.1
20260903204832 98 130 0.0 2.0 0.00 0.00 0.00 46 1017.2
20260903204329 98 279 0.0 2.0 0.00 0.00 0.00 47 1017.1
20260903203829 99 303 0.0 2.0 0.00 0.00 0.00 46 1017.2
20260903203622 99 355 1.0 2.0 0.00 0.00 0.00 45 1017.2
20260903202830 99 355 1.0 3.0 0.00 0.00 0.00 43 1017.3
20260903202329 100 140 1.0 4.0 0.00 0.00 0.00 45 1017.3
20260903201829 100 213 1.0 4.0 0.00 0.00 0.00 44 1017.3
20260903201335 100 205 1.0 3.0 0.00 0.00 0.00 43 1017.3
20260903200837 100 34 1.0 3.0 0.00 0.00 0.00 44 1017.4
20260903200332 100 32 1.0 3.0 0.00 0.00 0.00 44 1017.4
20260903200147 100 173 1.0 2.0 0.00 0.00 0.00 46 1017.4
20260903195327 99 137 1.0 2.0 0.00 0.00 0.00 46 1017.5
20260903194818 98 329 1.0 3.0 0.00 0.00 0.00 44 1017.6
20260903194315 98 92 2.0 3.0 0.00 0.00 0.00 45 1017.7
20260903193805 97 122 2.0 3.0 0.00 0.00 0.00 47 1017.8
20260903193307 99 109 1.0 3.0 0.00 0.00 0.00 44 1017.9
20260903192803 100 133 1.0 3.0 0.00 0.00 0.00 45 1017.8
20260903192616 100 155 1.0 3.0 0.00 0.00 0.00 45 1017.7
20260903191802 100 217 1.0 3.0 0.00 0.00 0.00 43 1017.8
20260903191302 99 110 1.0 3.0 0.00 0.00 0.00 44 1018.0
20260903191134 99 213 1.0 3.0 0.00 0.00 0.00 43 1018.0
20260903190618 99 131 1.0 3.0 0.00 0.00 0.00 44 1018.0
20260903185803 99 144 1.0 3.0 0.00 0.00 0.00 46 1018.1
20260903185306 99 115 1.0 3.0 0.00 0.00 0.00 45 1018.2
20260903184807 99 132 1.0 3.0 0.00 0.00 0.00 46 1018.2
20260903184307 98 203 1.0 3.0 0.00 0.00 0.00 47 1018.3
20260903183804 96 75 1.0 3.0 0.00 0.00 0.00 48 1018.3
20260903183307 96 51 1.0 3.0 0.00 0.00 0.00 51 1018.4
20260903182804 96 56 1.0 3.0 0.00 0.00 0.00 51 1018.3
20260903182630 96 53 1.0 2.0 0.00 0.00 0.00 50 1018.4
20260903181808 96 29 1.0 3.0 0.00 0.00 0.00 48 1018.6
20260903181306 96 216 1.0 3.0 0.00 0.00 0.00 48 1018.6
20260903180808 95 54 1.0 4.0 0.00 0.00 0.00 51 1018.4
20260903180258 95 57 1.0 5.0 0.00 0.00 0.00 49 1018.6
20260903175754 96 42 1.0 5.0 0.00 0.00 0.00 48 1018.6
20260903175252 96 255 2.0 4.0 0.00 0.00 0.00 50 1018.7
20260903174750 97 233 2.0 4.0 0.00 0.00 0.00 48 1018.7
20260903174250 97 76 2.0 3.0 0.00 0.00 0.00 48 1018.8
20260903173751 97 144 1.0 3.0 0.00 0.00 0.00 49 1019.0
20260903173249 97 118 1.0 3.0 0.00 0.00 0.00 49 1019.0
20260903172748 96 113 1.0 3.0 0.00 0.00 0.00 50 1019.0
20260903172437 94 51 2.0 5.0 0.00 0.00 0.00 52 1019.2
20260903172353 94 219 1.0 3.0 0.00 0.00 0.00 50 1019.1
20260903171251 94 43 2.0 5.0 0.00 0.00 0.00 52 1019.2
20260903170746 94 55 2.0 5.0 0.00 0.00 0.00 53 1019.4
20260903170618 95 59 1.0 5.0 0.00 0.00 0.00 53 1019.3
20260903165747 95 96 1.0 3.0 0.00 0.00 0.00 52 1019.4
20260903165249 96 99 1.0 2.0 0.00 0.00 0.00 50 1019.5
20260903164745 96 89 1.0 3.0 0.00 0.00 0.00 51 1019.5
20260903164249 96 130 1.0 3.0 0.00 0.00 0.00 50 1019.6
20260903163740 95 134 1.0 3.0 0.00 0.00 0.00 52 1019.7
20260903163239 94 63 2.0 3.0 0.00 0.00 0.00 52 1019.8
20260903162737 94 220 2.0 4.0 0.00 0.00 0.00 53 1019.8
20260903162240 94 115 1.0 4.0 0.00 0.00 0.00 54 1019.8
20260903161739 93 130 1.0 5.0 0.00 0.00 0.00 55 1019.7
20260903161616 93 140 2.0 5.0 0.00 0.00 0.00 54 1019.7
20260903160737 92 63 1.0 4.0 0.00 0.00 0.00 56 1019.8
20260903160237 92 62 1.0 4.0 0.00 0.00 0.00 57 1019.8
20260903155738 92 355 1.0 4.0 0.00 0.00 0.00 57 1019.8
20260903155237 91 50 1.0 4.0 0.00 0.00 0.00 59 1019.8
20260903154735 91 267 2.0 4.0 0.00 0.00 0.00 58 1019.9
20260903154240 91 252 2.0 4.0 0.00 0.00 0.00 58 1019.9
20260903153731 90 348 1.0 3.0 0.00 0.00 0.00 59 1019.8
20260903153233 90 5 1.0 3.0 0.00 0.00 0.00 64 1019.8
20260903152730 90 343 1.0 4.0 0.00 0.00 0.00 63 1020.0
20260903152231 89 337 1.0 4.0 0.00 0.00 0.00 65 1020.0
20260903152026 89 49 1.0 2.0 0.00 0.00 0.00 67 1020.1
20260903151231 89 57 0.0 3.0 0.00 0.00 0.00 67 1020.1
20260903150734 88 180 1.0 4.0 0.00 0.00 0.00 67 1020.0
20260903150614 88 155 1.0 4.0 0.00 0.00 0.00 67 1020.0
20260903145731 87 212 1.0 3.0 0.00 0.00 0.00 67 1020.1
20260903145232 87 317 2.0 3.0 0.00 0.00 0.00 69 1020.0
20260903144730 86 26 1.0 3.0 0.00 0.00 0.00 72 1019.9
20260903144231 86 30 1.0 3.0 0.00 0.00 0.00 74 1019.9
20260903143730 85 248 1.0 2.0 0.00 0.00 0.00 74 1019.8
20260903143228 85 5 1.0 2.0 0.00 0.00 0.00 76 1019.8
20260903142730 84 225 0.0 2.0 0.00 0.00 0.00 76 1019.9
20260903142228 84 207 0.0 2.0 0.00 0.00 0.00 77 1019.7
20260903141729 83 350 0.0 2.0 0.00 0.00 0.00 78 1019.7
20260903141229 83 350 1.0 4.0 0.00 0.00 0.00 78 1019.7
20260903140730 83 344 1.0 4.0 0.00 0.00 0.00 79 1019.7
20260903140229 82 11 1.0 3.0 0.00 0.00 0.00 80 1019.8
20260903135730 82 11 1.0 3.0 0.00 0.00 0.00 80 1019.9
20260903135229 81 250 0.0 2.0 0.00 0.00 0.00 82 1019.8
20260903134730 80 213 0.0 2.0 0.00 0.00 0.00 83 1019.7
20260903134230 80 162 0.0 1.0 0.00 0.00 0.00 84 1019.8
20260903133730 80 162 0.0 1.0 0.00 0.00 0.00 84 1019.7
20260903133228 79 184 0.0 2.0 0.00 0.00 0.00 84 1019.7
20260903132730 79 184 0.0 2.0 0.00 0.00 0.00 86 1019.7
20260903132230 78 229 0.0 2.0 0.00 0.00 0.00 87 1019.7
20260903131729 78 289 0.0 2.0 0.00 0.00 0.00 88 1019.7
20260903131233 78 254 0.0 3.0 0.00 0.00 0.00 89 1019.8
20260903130730 77 238 1.0 3.0 0.00 0.00 0.00 90 1019.8
20260903130234 77 351 0.0 2.0 0.00 0.00 0.00 91 1019.9
20260903130104 76 225 0.0 2.0 0.00 0.00 0.00 92 1019.9
20260903125229 76 225 0.0 2.0 0.00 0.00 0.00 93 1019.8
20260903124722 76 251 0.0 2.0 0.00 0.00 0.00 93 1020.0
20260903124601 76 254 0.0 2.0 0.00 0.00 0.00 94 1020.0
20260903124057 75 287 0.0 2.0 0.00 0.00 0.00 94 1019.9
20260903123209 75 111 0.0 1.0 0.00 0.00 0.00 94 1019.9
20260903122709 75 111 0.0 1.0 0.00 0.00 0.00 94 1019.8
20260903122211 74 111 0.0 2.0 0.00 0.00 0.00 94 1019.8
20260903121708 74 111 0.0 2.0 0.00 0.00 0.00 94 1019.9
20260903121206 74 111 0.0 0.0 0.00 0.00 0.00 94 1019.9
20260903120705 74 111 0.0 0.0 0.00 0.00 0.00 94 1019.8
20260903120633 73 111 0.0 1.0 0.00 0.00 0.00 93 1019.8
20260903120202 73 111 0.0 1.0 0.00 0.00 0.00 93 1019.7
20260903115203 73 111 0.0 1.0 0.00 0.00 0.00 93 1019.7
20260903114702 73 111 0.0 1.0 0.00 0.00 0.00 93 1019.7
20260903114201 73 111 0.0 0.0 0.00 0.00 0.00 93 1019.7
20260903113702 73 111 0.0 1.0 0.00 0.00 0.00 92 1019.6
20260903113204 73 111 0.0 1.0 0.00 0.00 0.00 92 1019.6
20260903112710 73 111 0.0 1.0 0.00 0.00 0.00 92 1019.5
20260903112203 73 111 0.0 0.0 0.00 0.00 0.00 92 1019.5
20260903111702 73 111 0.0 0.0 0.00 0.00 0.00 92 1019.5
20260903111204 73 111 0.0 1.0 0.00 0.00 0.00 92 1019.4
20260903110701 73 111 0.0 1.0 0.00 0.00 0.00 92 1019.4
20260903110201 73 111 0.0 1.0 0.00 0.00 0.00 92 1019.3
20260903105701 73 111 0.0 1.0 0.00 0.00 0.00 92 1019.3
20260903105206 73 111 0.0 0.0 0.00 0.00 0.00 92 1019.2
20260903104701 74 111 0.0 0.0 0.00 0.00 0.00 92 1019.1
20260903104201 74 111 0.0 0.0 0.00 0.00 0.00 92 1019.0
20260903104039 74 111 0.0 0.0 0.00 0.00 0.00 92 1019.1
20260903103201 74 111 0.0 0.0 0.00 0.00 0.00 92 1018.9
20260903102705 74 111 0.0 0.0 0.00 0.00 0.00 92 1018.9
20260903102208 74 111 0.0 0.0 0.00 0.00 0.00 92 1018.8
20260903101702 74 111 0.0 0.0 0.00 0.00 0.00 92 1018.9
20260903101507 74 111 0.0 0.0 0.00 0.00 0.00 92 1019.0
20260903101023 74 111 0.0 0.0 0.00 0.00 0.00 91 1018.8
20260903100205 74 111 0.0 1.0 0.00 0.00 0.00 91 1018.7
20260903095702 74 111 0.0 1.0 0.00 0.00 0.00 91 1018.7
20260903095201 74 111 0.0 0.0 0.00 0.00 0.00 91 1018.7
20260903095024 74 111 0.0 0.0 0.00 0.00 0.00 91 1018.8
20260903094155 74 111 0.0 0.0 0.00 0.00 0.00 91 1018.7
20260903093650 74 111 0.0 0.0 0.00 0.00 0.00 91 1018.7
20260903093149 74 111 0.0 0.0 0.00 0.00 0.00 91 1018.6
20260903092646 74 111 0.0 0.0 0.00 0.00 0.00 91 1018.6
20260903092145 74 111 0.0 0.0 0.00 0.00 0.00 91 1018.6
20260903091646 74 111 0.0 1.0 0.00 0.00 0.00 91 1018.6
20260903091140 74 111 0.0 1.0 0.00 0.00 0.00 91 1018.6
20260903090641 74 111 0.0 1.0 0.00 0.00 0.00 90 1018.6
20260903090143 74 111 0.0 0.0 0.00 0.00 0.00 90 1018.4
20260903085638 74 111 0.0 0.0 0.00 0.00 0.00 90 1018.4
20260903085411 74 111 1.0 2.0 0.00 0.00 0.00 90 1018.4
20260903085322 74 111 0.0 1.0 0.00 0.00 0.00 90 1018.6
20260903084719 74 111 0.0 2.0 0.00 0.00 0.00 91 1018.4
20260903083944 75 111 1.0 2.0 0.00 0.00 0.00 89 1018.6
20260903083132 75 42 0.0 1.0 0.00 0.00 0.00 88 1018.3
20260903082632 75 42 0.0 1.0 0.00 0.00 0.00 88 1018.2
20260903082132 75 42 0.0 1.0 0.00 0.00 0.00 88 1018.3
20260903081634 75 43 0.0 0.0 0.00 0.00 0.00 87 1018.2
20260903081139 75 43 0.0 1.0 0.00 0.00 0.00 87 1018.2
20260903080944 76 43 0.0 1.0 0.00 0.00 0.00 87 1018.3
20260903080134 76 43 0.0 1.0 0.00 0.00 0.00 87 1018.2
20260903075627 76 43 0.0 0.0 0.00 0.00 0.00 86 1018.2
20260903075130 76 42 0.0 0.0 0.00 0.00 0.00 86 1018.0
20260903074626 76 42 0.0 0.0 0.00 0.00 0.00 86 1018.0
20260903074131 76 43 0.0 0.0 0.00 0.00 0.00 86 1018.1
20260903073627 76 43 0.0 0.0 0.00 0.00 0.00 85 1018.0
20260903073126 76 42 0.0 0.0 0.00 0.00 0.00 85 1018.1
20260903072938 76 42 0.0 1.0 0.00 0.00 0.00 85 1018.1
20260903072123 76 43 0.0 1.0 0.00 0.00 0.00 85 1018.1
20260903071939 76 43 0.0 1.0 0.00 0.00 0.00 84 1018.1
20260903071121 77 42 0.0 0.0 0.00 0.00 0.00 84 1017.9
20260903070938 77 42 0.0 0.0 0.00 0.00 0.00 83 1017.9
20260903070623 77 43 0.0 0.0 0.00 0.00 0.00 84 1018.0
20260903070618 77 43 0.0 0.0 0.00 0.00 0.00 84 1017.9
20260903065124 77 43 0.0 0.0 0.00 0.00 0.00 83 1017.9
20260903064622 77 43 0.0 0.0 0.00 0.00 0.00 83 1017.9
20260903064123 77 42 0.0 0.0 0.00 0.00 0.00 83 1018.0
20260903063621 78 42 0.0 0.0 0.00 0.00 0.00 83 1017.9
20260903063120 78 43 0.0 0.0 0.00 0.00 0.00 82 1017.9
20260903062918 78 43 0.0 0.0 0.00 0.00 0.00 82 1017.9
20260903062119 78 43 0.0 0.0 0.00 0.00 0.00 82 1017.9
20260903061925 78 43 0.0 0.0 0.00 0.00 0.00 81 1017.9
20260903061119 78 42 0.0 1.0 0.00 0.00 0.00 81 1017.8
20260903060622 78 42 0.0 1.0 0.00 0.00 0.00 81 1017.8
20260903060438 78 43 0.0 1.0 0.00 0.00 0.00 82 1017.9
20260903055624 79 43 0.0 1.0 0.00 0.00 0.00 80 1017.8
20260903055125 79 42 0.0 1.0 0.00 0.00 0.00 79 1017.8
20260903054626 79 43 0.0 1.0 0.00 0.00 0.00 80 1017.9
20260903054125 79 42 0.0 1.0 0.00 0.00 0.00 80 1017.9
20260903053625 79 42 0.0 1.0 0.00 0.00 0.00 79 1017.9
20260903053447 80 42 0.0 1.0 0.00 0.00 0.00 78 1018.0
20260903052624 80 43 0.0 1.0 0.00 0.00 0.00 77 1018.0
20260903052120 80 42 0.0 1.0 0.00 0.00 0.00 77 1018.0
20260903051624 80 43 0.0 1.0 0.00 0.00 0.00 77 1018.1
20260903051124 80 43 0.0 1.0 0.00 0.00 0.00 77 1018.2
20260903050621 80 43 0.0 0.0 0.00 0.00 0.00 77 1018.1
20260903050121 80 42 0.0 1.0 0.00 0.00 0.00 77 1018.2
20260903045621 80 43 0.0 1.0 0.00 0.00 0.00 76 1018.1
20260903045122 80 43 0.0 1.0 0.00 0.00 0.00 77 1018.1
20260903044623 80 43 0.0 1.0 0.00 0.00 0.00 77 1018.1
20260903044121 80 42 0.0 2.0 0.00 0.00 0.00 77 1018.1
20260903043619 80 43 1.0 2.0 0.00 0.00 0.00 77 1018.1
20260903043119 80 43 0.0 2.0 0.00 0.00 0.00 77 1018.1
20260903042621 79 43 0.0 1.0 0.00 0.00 0.00 77 1018.1
20260903042419 79 42 0.0 1.0 0.00 0.00 0.00 77 1018.1
20260903041613 80 42 0.0 1.0 0.00 0.00 0.00 77 1018.1
20260903041114 80 43 0.0 1.0 0.00 0.00 0.00 77 1018.2
20260903040613 80 43 0.0 1.0 0.00 0.00 0.00 77 1018.1
20260903040116 80 43 0.0 1.0 0.00 0.00 0.00 77 1018.4
20260903035613 80 43 0.0 1.0 0.00 0.00 0.00 77 1018.4
20260903035113 80 43 0.0 0.0 0.00 0.00 0.00 76 1018.6